Regional Weather Roundup
Issued by NWS

Home | Current Version | Previous Version | Text Only | Print | Product List | Glossary Off
Versions: 1 2 3 4 5 6 7 8 9 10 11 12 13 14 15 16 17 18 19 20 21 22 23 24 25 26 27 28 29 30 31 32 33 34 35 36 37 38 39 40 41 42 43 44 45 46 47 48 49 50

902
ASUS44 KJAN 290303
RWRMS

MISSISSIPPI HOURLY WEATHER ROUNDUP
NATIONAL WEATHER SERVICE JACKSON MS
900 PM CST WED JAN 28 2015

NOTE: "FAIR: INDICATES FEW OR NO CLOUDS BELOW 12,000 FEET WITH NO
SIGNIFICANT WEATHER AND/OR OBSTRUCTIONS TO VISIBILITY.

MSZ001>002-007>008-010>013-018>021-025>028-034>036-290400-
NORTHWEST MISSISSIPPI

CITY           SKY/WX    TMP DP  RH WIND       PRES   REMARKS
CLARKSDALE     FAIR      48  39  71 SE7       30.13S
CLEVELAND      FAIR      52  42  68 S8        30.12R
GREENWOOD      MOCLDY    54  37  52 S9        30.14R
GREENVILLE     MOCLDY    53  40  61 S9        30.12R
GRENADA        FAIR      48  36  61 CALM      30.15R
OLIVE BRANCH   CLEAR     46  32  57 S7        30.13R
OXFORD         FAIR      48  30  49 SE8       30.15R
TUNICA         PTCLDY    45  36  70 S8        30.12S
$$

MSZ003>006-009-014>017-022>024-029>033-037>039-290400-
NORTHEAST MISSISSIPPI

CITY           SKY/WX    TMP DP  RH WIND       PRES   REMARKS
COLUMBUS AFB   MOCLDY    43  33  66 SE7       30.17F
CORINTH        FAIR      46  32  57 S8        30.13S
GOLDN TRIANGLE MOCLDY    50  30  46 SE10      30.16F
STARKVILLE     FAIR      46  32  57 S5        30.17S
TUPELO         MOCLDY    49  32  52 S9        30.15S
$$

MSZ040-058-290400-
CENTRAL MISSISSIPPI

CITY           SKY/WX    TMP DP  RH WIND       PRES   REMARKS
JACKSON INTL   MOCLDY    54  36  50 S9        30.17R
JACKSON HAWKNS NOT AVBL
MERIDIAN KEY   PTCLDY    40  34  79 SW3       30.20F
MERIDIAN NAS   MOCLDY    49  30  48 SE3       30.21S
RAYMOND        FAIR      59  54  82 MISG      30.16R
VICKSBURG      MOCLDY    59  40  49 S7        30.16R
$$

MSZ059>079-290400-
SOUTH MISSISSIPPI

CITY           SKY/WX    TMP DP  RH WIND       PRES   REMARKS
BROOKHAVEN     FAIR      55  41  58 S7        30.20R
HATTIESBURG    MOCLDY    48  40  73 S5        30.23S
MCCOMB         PTCLDY    51  40  65 S7        30.20S
NATCHEZ        MOCLDY    57  36  44 S9        30.17R
PINE BELT      MOCLDY    48  34  57 S6        30.21F
$$

MSZ080>082-290400-
COASTAL MISSISSIPPI

CITY           SKY/WX    TMP DP  RH WIND       PRES   REMARKS
BAY ST LOUIS   CLEAR     41  37  87 CALM      30.25F
BILOXI         NOT AVBL
PASCAGOULA     PTCLDY    43  41  93 CALM      30.26S
GULFPORT       PTCLDY    46  43  89 CALM      30.24F
$$



USA.gov is the U.S. government's official web portal to all federal, state and local government web resources and services.